Theta_e
306 300 298 298 299 302 307 310 311 312 313 315 315 314 312 310 306 303 305 306 308 310 309 309 310 312 314 316 319 318 320 327 330 334 334 334 336 334 336 335 334 337 337 339 339 337 342 339 339 348 343 339 340 339
304 299 297 298 299 303 308 311 311 312 313 314 315 314 312 310 306 303 305 308 308 311 309 308 307 307 308 309 311 315 323 329 329 332 332 333 333 334 333 337 330 338 338 339 338 341 338 335 337 336 335 336 336 337
302 298 297 299 301 305 308 310 311 312 313 315 314 313 311 310 306 303 304 304 308 312 310 309 310 310 310 309 309 312 325 326 325 324 328 330 333 330 335 334 334 332 330 339 336 339 338 336 334 333 333 334 334 334
301 297 297 300 303 306 308 310 311 314 314 314 314 313 312 310 307 303 304 307 308 311 309 310 310 308 311 313 311 311 313 322 320 319 323 326 331 331 332 327 331 333 332 331 335 336 337 331 332 334 335 334 332 331
300 297 298 300 301 304 307 309 311 314 313 314 314 313 311 309 307 305 305 307 308 310 309 308 306 310 313 314 315 316 318 322 320 322 325 327 322 329 328 327 335 331 332 337 336 331 329 326 330 332 329 329 331 329
299 300 299 300 301 303 307 310 311 313 315 314 313 312 311 308 307 306 307 310 308 309 309 308 310 312 313 316 316 318 320 321 322 322 322 322 321 327 325 328 332 331 329 331 335 329 327 325 326 329 326 328 329 328
299 298 298 300 301 303 307 309 311 313 314 314 313 312 310 308 305 308 310 310 305 306 308 311 316 318 314 318 317 318 318 320 321 321 321 320 320 321 325 329 333 331 331 330 330 330 332 327 324 324 326 325 326 331
297 297 297 299 300 302 304 308 311 312 314 312 312 311 309 307 305 305 309 309 306 307 310 313 315 319 319 319 318 317 318 320 322 320 320 319 320 323 323 333 330 328 329 328 330 327 322 323 327 330 331 332 333 333
296 296 296 298 299 301 304 308 311 313 312 311 310 308 305 303 308 310 308 306 307 307 313 316 314 318 318 322 319 320 321 322 320 321 320 320 323 325 330 330 331 329 330 326 324 323 326 328 331 331 331 332 331 330
295 295 295 296 299 303 307 310 312 312 311 309 305 304 308 308 308 305 304 310 308 309 309 312 313 315 319 323 323 324 323 320 323 320 320 321 320 329 328 330 328 325 324 323 322 324 327 331 331 330 329 330 328 327
296 295 295 295 299 304 308 310 311 310 307 304 305 306 309 308 308 311 314 314 314 315 313 313 312 311 315 321 321 323 328 325 325 326 323 324 333 332 330 327 324 323 322 321 321 322 327 329 329 326 328 326 325 324
296 296 295 295 300 304 308 310 311 309 308 307 306 308 309 309 312 315 316 316 317 317 318 316 315 310 312 315 321 329 326 328 329 330 330 331 335 329 327 327 325 324 324 325 326 327 327 328 328 328 327 326 325 324
297 296 295 295 301 306 307 310 310 309 306 307 310 312 314 313 315 317 317 317 319 320 320 317 316 316 322 324 328 328 329 327 326 332 329 335 335 332 329 327 325 324 325 327 327 327 327 327 326 320 321 322 326 325
297 296 295 295 301 306 308 310 309 306 306 309 311 312 316 316 316 316 317 319 319 320 319 319 317 318 321 323 327 326 325 327 328 326 332 335 334 330 327 327 327 328 328 327 328 327 327 326 323 321 320 323 321 326
297 295 294 294 301 306 309 308 308 305 308 312 314 315 315 315 316 316 317 318 319 320 320 318 317 316 319 327 327 327 329 328 327 334 336 333 332 331 331 330 326 328 327 327 326 326 326 322 319 318 318 317 320 323
297 296 295 295 300 306 307 307 305 306 308 313 314 316 316 317 316 316 318 317 318 320 319 317 315 317 325 326 324 325 325 324 332 336 333 333 334 333 331 329 326 326 326 326 325 325 325 326 325 323 318 324 321 323
295 298 297 295 302 307 306 305 305 307 310 312 314 315 315 316 319 319 319 318 320 320 319 318 315 315 323 322 325 326 325 329 332 332 331 334 332 332 328 324 324 323 322 321 322 322 322 320 322 325 324 323 322 322
299 299 296 298 305 305 304 304 307 308 310 311 313 316 316 316 318 317 318 318 318 319 320 319 320 318 319 319 322 325 328 328 331 330 331 332 332 330 328 324 323 322 324 323 323 322 322 323 322 324 324 324 322 322
300 299 298 304 305 304 305 305 307 310 311 312 313 314 314 315 318 319 318 321 320 320 321 321 319 320 321 321 325 325 324 327 328 330 331 330 328 327 326 325 324 325 324 323 324 324 323 321 324 325 324 323 322 321
302 302 303 305 305 307 308 308 308 311 314 313 313 313 315 314 318 317 318 321 319 319 320 321 319 324 325 323 323 324 325 327 328 329 328 328 327 326 327 325 325 322 322 323 325 325 324 323 324 324 324 322 320 320
303 303 304 304 305 308 311 310 309 310 311 315 315 314 315 315 316 317 318 318 320 319 320 322 322 320 320 320 321 319 319 323 328 328 328 327 322 326 327 326 326 326 325 321 321 320 320 322 323 325 323 322 321 319
303 304 304 304 306 308 311 311 313 313 313 315 318 318 318 320 320 321 319 320 319 320 318 321 321 319 319 318 322 324 324 325 323 321 323 322 322 325 325 325 323 320 321 321 321 320 321 323 323 322 321 323 323 320
303 303 303 305 308 308 310 312 315 315 315 316 317 317 317 320 320 318 319 319 319 317 314 315 316 316 316 316 316 323 321 321 324 324 322 321 321 322 322 321 320 321 322 320 320 320 320 321 321 321 321 321 322 321
304 305 306 308 309 310 311 314 315 315 316 316 315 315 317 320 318 320 320 319 319 319 319 313 314 314 314 315 317 325 324 323 319 321 321 321 322 321 320 321 320 320 319 320 320 319 319 321 321 320 321 321 318 318
305 307 307 304 310 311 313 313 314 315 314 314 315 318 320 319 319 319 321 321 318 317 316 318 315 314 314 320 323 324 320 321 321 323 320 320 320 320 319 319 318 318 319 319 319 319 320 320 320 320 320 319 318 316
303 307 305 309 311 313 314 313 313 314 315 315 316 319 319 320 319 321 321 320 319 319 319 321 321 322 322 320 322 324 320 320 320 321 320 319 319 319 319 320 319 319 318 318 319 318 318 318 317 318 318 319 318 316
306 308 307 307 312 312 313 313 313 314 317 317 317 315 316 321 323 323 320 317 319 317 320 318 318 320 320 320 319 319 319 319 321 320 320 319 318 318 318 320 320 318 317 317 316 317 317 317 317 317 317 317 316 316
303 308 311 310 311 312 316 316 317 319 320 320 321 323 324 322 324 324 321 319 319 318 318 318 318 318 319 319 318 318 318 318 318 318 317 318 318 317 317 315 317 318 318 317 318 317 317 317 318 317 317 318 316 316
307 311 312 311 310 314 315 321 321 321 321 322 323 323 323 322 322 321 319 318 318 318 319 318 318 318 318 318 318 318 318 317 318 319 321 320 318 318 318 317 315 317 319 318 316 315 315 316 317 316 316 317 316 315
320 314 318 316 318 321 321 322 321 320 319 320 320 320 321 320 318 318 319 319 318 319 318 318 318 319 319 319 319 318 317 317 318 318 320 319 318 316 318 318 318 316 315 314 315 317 317 316 316 317 317 318 315 317
320 322 323 322 323 320 321 320 320 320 320 320 320 321 321 320 318 317 318 318 319 318 318 319 318 318 320 318 318 320 319 318 318 317 316 317 317 317 317 316 316 315 316 316 316 316 318 316 316 316 318 317 317 317
321 322 322 323 323 322 321 321 321 321 320 320 320 321 319 319 318 316 317 318 318 320 318 319 319 318 318 318 317 317 317 317 317 318 317 315 313 313 314 314 315 315 315 316 316 316 316 315 314 315 316 316 315 313
321 320 321 321 323 322 321 320 321 322 321 322 321 321 321 322 320 321 317 317 317 318 318 318 317 317 318 317 315 315 315 316 315 314 312 310 309 309 309 310 311 312 312 312 311 310 309 309 308 307 307 308 308 307
Wind_Speed
19 17 15 13 12 11 10 11 11 11 12 14 15 13 10 8 6 7 14 8 9 4 13 14 15 12 10 6 5 9 8 7 5 4 6 4 4 5 6 2 6 6 6 5 6 2 2 7 4 4 4 5 10 8
20 17 15 12 11 10 10 10 11 11 13 14 15 13 11 8 6 6 7 14 17 9 12 39 41 36 30 26 7 3 2 0 2 5 4 1 3 5 2 4 4 2 4 3 3 3 7 11 10 9 7 5 7 8
20 17 15 12 10 9 8 9 12 11 13 15 15 13 11 8 7 7 10 12 15 6 12 12 10 25 25 32 29 4 2 4 2 4 4 3 2 3 1 4 2 1 4 2 2 7 6 6 8 7 8 8 6 6
20 17 15 12 10 9 7 8 10 11 12 14 15 13 10 8 8 8 9 12 14 7 4 6 25 17 18 13 30 27 19 6 4 2 3 3 2 5 3 4 2 3 4 4 3 8 4 19 16 6 5 7 7 6
21 18 15 12 10 9 7 7 9 10 11 13 14 13 10 8 7 11 17 19 15 6 4 9 31 28 17 16 15 14 9 3 2 3 2 3 2 4 4 4 1 4 4 1 1 7 9 6 7 8 6 5 6 5
20 16 14 10 8 8 8 10 10 10 11 14 14 13 10 7 5 4 3 2 5 8 2 4 8 9 21 10 13 6 4 3 3 3 4 4 5 2 0 1 1 1 5 3 4 11 6 7 15 8 3 2 5 3
18 16 13 11 8 7 9 9 11 9 12 13 14 12 9 7 6 6 5 1 5 5 3 4 5 5 15 7 3 3 8 4 3 3 3 3 5 2 2 3 8 10 7 9 7 5 6 12 5 5 6 2 3 2
17 15 13 11 8 7 9 9 11 10 14 14 14 11 8 5 8 9 12 14 8 6 5 3 5 4 4 3 3 4 4 4 4 4 3 3 5 3 1 13 16 13 12 10 5 8 6 6 2 9 13 13 10 6
17 15 13 11 9 7 6 11 12 12 16 16 14 9 3 3 5 3 4 3 15 4 3 3 4 3 6 4 4 3 4 2 4 4 4 2 3 2 4 15 13 14 12 3 2 6 8 11 8 8 9 11 9 10
17 15 13 11 9 7 9 11 12 18 21 20 11 3 2 6 7 2 1 3 4 4 4 4 2 5 3 4 4 3 4 3 2 5 3 4 4 3 10 8 7 5 4 4 4 1 4 8 7 6 8 7 7 5
16 14 13 11 9 8 11 14 19 26 24 5 4 3 1 8 4 4 3 4 5 4 5 4 7 4 3 1 3 3 1 3 3 3 2 3 2 4 8 8 4 3 3 4 1 4 5 13 9 7 7 6 9 7
15 14 13 12 11 10 14 18 26 21 11 9 3 1 3 3 3 4 3 4 5 5 4 6 4 5 3 2 6 4 1 0 3 2 3 4 3 4 8 8 5 2 3 3 7 5 7 9 10 7 7 8 9 8
15 14 13 13 12 12 15 19 28 15 16 6 1 2 0 3 1 6 6 5 4 3 2 3 3 4 4 4 1 4 4 3 1 1 4 1 3 5 6 5 6 5 10 15 16 19 21 15 16 17 17 26 7 8
15 13 12 12 11 12 17 25 25 22 4 3 4 4 5 5 6 6 8 6 5 4 3 3 2 2 3 2 4 2 4 6 4 1 2 5 4 5 4 6 8 10 11 11 8 13 13 13 9 18 27 9 22 6
14 12 11 12 13 13 21 33 23 12 3 3 5 4 8 7 7 7 8 8 1 3 1 2 2 1 3 2 3 3 5 6 2 3 3 5 6 5 7 8 7 7 7 7 8 7 10 10 12 12 15 10 11 7
12 9 11 11 14 14 28 26 17 1 1 2 4 4 7 6 8 9 2 3 5 2 2 3 1 2 2 2 2 3 2 3 2 3 4 5 6 6 6 7 7 7 7 8 10 7 8 6 4 8 6 7 23 10
12 4 8 16 14 17 31 8 4 3 1 3 5 5 9 8 5 4 3 7 6 1 1 2 3 2 3 2 2 5 5 3 7 6 4 6 6 6 7 6 6 5 5 4 3 5 3 4 5 3 5 11 10 9
4 6 15 22 24 27 8 2 2 2 5 7 5 7 6 6 1 6 2 4 2 2 1 3 3 3 3 3 4 3 3 4 3 6 5 6 5 5 7 6 4 3 2 6 2 4 10 7 4 8 8 10 11 10
6 16 22 30 26 7 3 1 1 4 8 5 7 7 4 8 2 2 3 4 5 5 3 3 2 5 3 2 2 3 6 1 3 4 5 8 10 6 8 6 3 3 3 4 5 9 9 8 4 5 7 9 13 13
3 14 28 29 14 4 4 4 5 4 4 4 6 9 8 7 3 2 3 2 1 2 3 3 4 2 2 4 3 5 8 4 3 5 4 2 7 8 4 4 6 4 6 13 14 16 17 9 10 10 8 8 6 4
15 17 25 16 4 4 2 5 5 4 4 3 5 9 6 5 3 4 5 2 2 2 3 2 3 4 3 10 2 9 11 16 1 2 3 1 2 6 8 10 9 7 5 3 4 8 3 4 8 6 5 8 8 9
11 16 6 3 2 4 2 6 3 3 4 4 3 2 3 3 3 2 3 1 1 2 3 1 2 3 3 5 14 2 5 9 4 5 6 6 3 3 2 4 4 4 2 3 2 4 4 4 3 3 5 9 10 12
17 9 4 4 4 4 5 4 4 3 2 2 2 2 2 1 1 3 2 1 2 2 6 3 1 1 3 19 28 7 4 5 2 3 2 2 11 12 11 10 8 4 1 4 7 6 4 2 5 6 8 6 9 11
11 6 2 3 6 3 3 3 3 2 1 1 1 2 2 0 2 1 3 3 0 2 6 7 7 6 12 16 12 8 10 8 8 7 3 1 3 9 10 8 6 7 5 5 6 7 8 7 8 11 7 3 13 9
3 4 3 2 2 3 4 5 2 1 3 3 3 1 2 1 1 1 3 2 1 3 4 8 9 8 8 10 3 8 9 10 3 5 8 10 10 7 6 6 4 5 7 7 4 7 6 8 8 6 2 6 10 10
2 4 4 7 4 4 4 5 6 5 2 4 5 2 1 2 1 3 2 3 4 5 7 7 7 5 2 0 2 3 8 13 12 10 7 4 3 2 2 3 4 11 5 6 4 3 6 4 3 2 1 11 14 14
3 5 4 2 2 2 2 1 2 3 5 6 4 3 1 3 3 2 1 1 3 10 14 7 3 3 2 5 11 12 11 11 10 8 4 5 5 4 5 5 5 11 16 16 19 13 12 11 10 9 11 10 11 15
5 4 8 8 3 3 4 5 7 4 2 3 4 10 5 3 3 1 1 17 13 9 8 13 10 11 11 8 7 10 10 9 7 7 6 5 2 9 4 4 6 10 17 18 16 22 26 22 19 17 16 15 15 15
5 4 3 5 4 4 4 4 5 2 7 8 10 11 13 8 5 3 5 11 14 14 12 8 8 6 9 8 8 7 6 6 3 4 7 7 7 18 18 16 7 9 8 5 12 12 13 16 22 24 23 21 19 18
17 17 11 14 7 11 5 5 4 8 9 10 11 11 12 12 26 35 29 21 11 11 17 12 10 17 10 9 5 2 5 5 4 7 2 1 4 8 15 16 14 8 3 8 20 26 20 15 12 17 18 11 21 27
7 11 14 12 9 7 12 12 14 14 11 11 10 11 9 4 17 24 28 23 19 19 21 16 13 15 13 12 12 12 8 4 1 2 6 4 5 7 13 15 18 16 16 15 13 18 20 12 12 11 11 6 8 7
9 12 10 16 12 10 11 10 10 11 10 9 10 9 6 5 4 9 23 25 22 11 6 7 7 5 9 9 10 12 11 13 6 4 6 11 14 16 17 18 20 20 19 16 13 13 17 18 18 21 19 16 14 15
9 9 8 5 3 3 6 6 9 9 10 10 7 8 7 5 5 2 1 3 10 1 1 4 9 10 9 10 14 15 14 9 11 13 15 17 17 17 18 14 13 14 16 16 18 20 21 21 20 22 22 20 17 17
Wind_Direction
237 240 242 248 259 264 271 268 235 217 233 224 220 224 234 239 256 294 279 265 260 268 285 270 295 291 315 314 327 329 327 9 326 45 21 338 348 357 10 51 337 356 331 20 347 318 296 328 123 67 158 92 140 110
233 235 242 246 253 256 269 255 212 224 226 220 217 218 227 233 246 280 282 323 331 257 284 291 284 274 257 257 283 290 263 235 322 347 164 180 357 2 337 318 341 77 1 315 45 347 308 41 83 105 108 96 52 63
228 230 236 239 244 244 258 244 219 228 223 215 213 214 223 230 240 259 287 306 318 281 292 261 260 279 260 238 229 232 200 182 189 239 277 147 141 144 148 255 196 39 327 332 208 88 203 105 67 67 85 98 99 130
222 224 230 228 234 236 241 234 220 226 218 209 208 210 217 229 241 266 276 290 309 295 285 293 348 323 294 295 208 219 241 188 223 287 273 269 175 207 235 229 128 83 158 271 279 13 4 12 356 16 74 82 64 19
218 217 219 221 230 231 235 218 216 208 216 208 207 209 214 227 250 277 281 273 260 264 300 303 303 288 299 269 213 239 209 233 246 291 305 247 283 164 235 155 223 180 190 156 322 165 137 213 280 256 332 358 96 17
211 211 210 212 220 216 213 206 208 212 212 204 202 203 207 219 249 325 303 111 276 337 286 290 326 286 288 275 182 240 209 207 206 219 275 275 290 248 276 84 111 189 249 212 155 199 214 186 214 232 221 216 127 239
205 206 205 207 208 204 203 205 205 206 188 191 195 194 201 212 222 237 287 263 34 0 254 284 285 256 228 216 166 205 236 231 216 259 267 264 287 289 220 114 172 220 225 242 204 196 167 180 223 237 232 202 238 81
203 203 201 200 200 205 206 207 197 186 185 186 180 182 191 221 275 275 271 244 236 265 265 273 276 271 211 183 203 191 218 219 230 204 239 223 275 171 232 150 183 191 215 247 263 218 197 181 40 46 49 41 48 65
191 196 197 197 195 199 199 196 181 176 174 167 161 151 144 226 234 216 206 182 206 265 302 265 279 307 359 311 240 173 192 239 231 210 213 166 244 225 238 168 171 186 200 233 148 94 92 100 96 69 65 54 47 38
192 189 192 197 190 185 179 173 166 164 158 150 134 151 212 216 212 197 185 186 200 207 225 250 263 281 356 2 295 306 175 207 266 224 178 165 239 133 107 108 109 91 60 341 286 21 108 86 105 94 80 92 103 95
186 183 190 190 183 175 170 168 159 151 138 162 169 212 295 163 221 216 233 215 185 221 205 228 217 256 267 335 290 264 307 260 223 233 153 184 55 127 110 97 89 102 137 271 238 232 98 145 153 142 143 129 116 122
180 185 187 185 178 168 174 179 165 155 160 163 172 164 226 221 228 257 227 228 237 221 218 186 183 174 277 179 234 282 219 279 286 48 72 33 287 141 124 128 139 233 277 1 105 105 112 118 115 120 140 156 169 184
186 187 185 184 176 167 183 183 170 165 141 121 82 104 149 236 203 226 219 231 209 237 126 154 197 209 195 214 15 14 332 211 160 195 182 80 167 78 76 117 108 44 55 53 47 44 51 77 87 69 41 359 162 186
183 184 184 182 179 175 184 183 164 155 115 143 179 171 214 204 224 209 249 259 221 305 127 165 182 276 279 190 127 94 296 286 151 247 84 153 124 84 24 53 69 53 52 73 56 63 63 68 51 65 71 1 332 247
179 181 187 190 180 179 182 175 169 166 167 216 202 213 219 241 270 269 242 266 182 254 180 122 138 101 284 347 41 158 201 227 269 88 106 131 122 101 77 71 80 63 53 61 42 63 105 96 104 109 80 9 278 290
173 177 201 186 177 177 179 165 162 138 354 255 252 256 274 228 242 258 202 338 327 188 141 97 274 236 55 23 285 193 262 281 101 91 117 115 99 88 78 73 73 60 52 42 30 44 35 35 161 165 192 177 224 198
163 202 186 171 165 169 170 128 131 197 267 269 248 249 266 269 301 312 313 292 166 249 202 246 205 241 103 296 78 318 260 149 119 123 119 114 115 112 113 103 109 106 101 112 71 14 5 350 323 147 127 158 146 137
200 182 168 157 159 139 120 92 130 180 210 236 257 253 271 253 202 287 273 333 42 339 249 260 320 242 190 227 279 12 348 53 107 128 132 125 133 140 142 134 115 157 351 73 72 303 289 238 254 130 160 160 171 170
143 155 159 158 145 120 109 56 232 221 226 246 249 265 282 298 181 248 323 42 21 18 15 308 176 262 252 265 335 313 323 180 122 156 140 132 129 121 127 117 97 46 88 287 290 289 298 275 201 162 170 173 186 197
142 169 160 157 153 147 144 171 202 262 260 216 231 257 260 256 272 335 53 50 40 337 244 237 252 57 347 351 348 360 318 15 142 163 143 124 170 158 166 154 160 216 259 275 279 271 257 285 202 198 208 194 194 193
156 160 163 169 193 266 223 168 192 227 266 260 223 221 245 246 251 269 259 264 190 237 234 30 37 7 334 340 250 186 35 312 272 107 157 167 195 183 203 224 232 232 278 14 29 6 337 305 226 187 245 241 229 229
133 136 125 111 321 299 273 233 239 229 199 259 353 294 288 326 314 293 321 165 229 191 2 355 167 218 335 10 291 284 175 273 308 125 160 190 256 256 249 195 76 82 129 321 341 347 340 68 91 237 241 255 241 250
131 104 116 177 214 209 256 230 220 246 208 168 210 241 201 193 11 36 28 12 182 169 202 186 266 112 262 285 298 252 274 287 290 195 194 284 63 43 43 44 16 337 26 21 348 352 17 270 302 279 292 233 231 232
121 151 149 212 197 235 274 206 204 177 131 205 193 236 206 129 348 201 56 299 12 192 179 190 163 201 251 271 271 246 240 256 286 313 164 200 99 53 29 0 2 357 353 321 301 294 287 273 300 289 295 209 60 24
125 209 151 263 148 207 191 157 140 213 187 185 237 226 141 195 90 266 228 121 0 257 287 129 200 221 230 254 209 196 237 273 92 92 54 64 60 43 26 50 20 315 319 275 339 358 326 306 301 296 192 140 151 157
173 198 167 193 170 209 192 170 186 189 181 183 220 57 23 247 261 325 275 152 177 226 260 224 188 179 144 82 212 211 62 61 62 79 54 55 74 113 329 339 326 341 7 360 314 335 298 5 357 300 204 207 207 213
216 196 200 257 278 151 210 259 166 195 202 202 155 133 180 215 168 153 270 298 185 234 230 134 109 26 75 47 79 85 64 52 60 90 50 61 73 31 30 10 23 13 21 11 360 341 324 310 311 277 275 267 252 257
236 239 194 176 181 201 268 188 187 211 316 243 203 180 186 99 107 164 182 186 191 98 59 46 32 31 21 5 337 62 79 89 81 68 52 96 312 310 336 27 20 11 356 345 339 353 337 332 294 263 276 278 273 282
204 208 192 171 217 227 244 230 212 227 101 90 90 90 100 106 126 135 167 95 78 61 71 60 41 27 54 57 92 101 77 56 16 33 21 43 18 2 354 343 317 337 20 297 281 323 280 296 295 293 290 297 292 285
130 168 176 181 161 131 125 130 65 107 96 88 91 84 70 56 40 38 37 33 52 73 66 43 18 22 32 55 29 139 188 110 75 84 38 46 124 22 290 275 266 227 251 265 289 303 299 265 315 320 290 314 317 319
79 68 61 55 49 57 66 69 71 70 68 67 72 82 79 63 46 30 24 20 28 41 44 48 39 22 23 5 5 8 63 355 198 44 51 31 30 297 305 286 284 304 307 277 277 297 291 301 329 312 299 325 19 21
79 90 85 85 77 67 70 79 84 84 81 87 94 86 79 74 56 17 12 22 31 35 36 47 72 64 21 49 49 5 40 77 81 44 26 29 17 4 358 358 354 354 352 345 337 315 344 19 12 11 28 23 26 17
85 86 91 80 54 63 94 93 77 70 69 61 51 77 84 71 85 153 310 61 72 342 310 62 40 37 36 35 44 30 23 63 75 55 33 18 10 3 356 352 355 356 356 360 23 19 13 13 13 12 3 2 14 13